, AK

(GMT )
Deadhorse

Weather History for PASC - March, 2013

Change the Weather History Date:

Friday, March 15, 2013

  Actual Average Record
Temperature  
Mean Temperature -2 °F -  
Max Temperature 5 °F -3 °F 15 °F (1989)
Min Temperature -8 °F -16 °F -45 °F (2009)
Degree Days  
Heating Degree Days 68    
Moisture  
Dew Point -8 °F    
Average Humidity 74    
Maximum Humidity 80    
Minimum Humidity 69    
Precipitation  
Precipitation 0.00 in - - ()
Sea Level Pressure  
Sea Level Pressure 30.40 in    
Wind  
Wind Speed 25 mph (ENE)    
Max Wind Speed 31 mph    
Max Gust Speed 36 mph    
Visibility 7 miles    
Events Snow    
Averages and records for this station are not official NWS values.
T = Trace of Precipitation, MM = Missing Value Source: NWS Daily Summary

Daily Weather History Graph

Daily Weather History Graph

Search for Another Location

Airport or City:

Trip Planner

Search our weather history database for the weather conditions in past years. The results will help you decide how hot, cold, wet, or windy it might be!

Date:

Astronomy

Mar. 15, 2013 Rise Set
Actual Time 8:13 AM AKDT 7:53 PM AKDT
Civil Twilight 7:12 AM AKDT 8:54 PM AKDT
Nautical Twilight 5:57 AM AKDT 10:11 PM AKDT
Astronomical Twilight 4:23 AM AKDT 11:48 PM AKDT
Moon 7:29 AM AKDT (3/15) 1:50 AM AKDT (3/15)
Length of Visible Light 13h 42m
Length of Day
11h 39m
Waxing Crescent, 16% of the Moon is Illuminated
Mar 15
Waxing Crescent
Mar 19
First Quarter
Mar 27
Full
Apr 2
Last Quarter
Apr 10
New

Hourly Weather History & Observations

Time (AKDT) Temp. Windchill Dew Point Humidity Pressure Visibility Wind Dir Wind Speed Gust Speed Precip Events Conditions
12:53 AM -5.1 °F -32.3 °F -11.0 °F 76% 30.59 in 3.0 mi ENE 28.8 mph - N/A Snow Blowing Snow
1:53 AM -5.1 °F -31.5 °F -11.9 °F 72% 30.58 in 6.0 mi ENE 26.5 mph - N/A Snow Blowing Snow
2:53 AM -5.1 °F -31.9 °F -11.9 °F 72% 30.56 in 9.0 mi ENE 27.6 mph - N/A   Clear
3:53 AM -4.0 °F -31.6 °F -11.0 °F 72% 30.53 in 6.0 mi ENE 31.1 mph - N/A Snow Blowing Snow
4:53 AM -8.0 °F -30.3 °F -14.1 °F 75% 30.54 in 10.0 mi East 16.1 mph - N/A   Clear
5:53 AM -7.1 °F -29.1 °F -14.1 °F 72% 30.52 in 10.0 mi East 16.1 mph - 0.00 in   Clear
6:53 AM -7.1 °F -31.6 °F -14.1 °F 72% 30.50 in 10.0 mi ENE 20.7 mph - 0.00 in   Clear
7:53 AM -6.0 °F -30.7 °F -13.0 °F 72% 30.48 in 10.0 mi ENE 21.9 mph - N/A   Clear
8:53 AM -6.0 °F -29.0 °F -11.9 °F 75% 30.46 in 10.0 mi East 18.4 mph - N/A   Clear
9:53 AM -4.0 °F -30.4 °F -11.0 °F 72% 30.43 in 7.0 mi ENE 27.6 mph - N/A   Clear
10:53 AM -2.9 °F -28.1 °F -9.9 °F 72% 30.41 in 7.0 mi ENE 25.3 mph - N/A   Clear
11:53 AM -0.9 °F -22.4 °F -9.0 °F 69% 30.42 in 10.0 mi East 18.4 mph - N/A   Clear
12:53 PM 1.0 °F -24.8 °F -7.1 °F 69% 30.39 in 4.0 mi ENE 31.1 mph - 0.00 in Snow Blowing Snow
1:53 PM 1.9 °F -22.8 °F -5.1 °F 72% 30.37 in 5.0 mi ENE 28.8 mph - N/A Snow Blowing Snow
2:53 PM 3.0 °F -21.4 °F -4.0 °F 73% 30.32 in 3.0 mi East 28.8 mph 35.7 mph N/A Snow Blowing Snow
3:53 PM 3.9 °F -18.5 °F -2.9 °F 73% 30.32 in 3.0 mi East 24.2 mph - N/A Snow Blowing Snow
4:53 PM 3.9 °F -19.4 °F -2.0 °F 76% 30.30 in 4.0 mi East 26.5 mph - N/A Snow Blowing Snow
5:53 PM 3.9 °F -17.6 °F -2.0 °F 76% 30.28 in 5.0 mi East 21.9 mph - N/A Snow Blowing Snow
6:53 PM 3.0 °F -19.3 °F -2.9 °F 76% 30.27 in 6.0 mi East 23.0 mph - N/A Snow Blowing Snow
7:53 PM 1.9 °F -21.6 °F -2.9 °F 80% 30.25 in 6.0 mi ENE 25.3 mph - N/A Snow Blowing Snow
8:53 PM 1.9 °F -19.8 °F -4.0 °F 76% 30.24 in 5.0 mi East 20.7 mph - N/A Snow Blowing Snow
9:53 PM 1.0 °F -19.3 °F -5.1 °F 75% 30.25 in 10.0 mi East 17.3 mph - 0.00 in   Clear
10:53 PM -0.0 °F -24.7 °F -6.0 °F 76% 30.24 in 10.0 mi East 26.5 mph - N/A   Clear
11:53 PM -0.9 °F -21.9 °F -7.1 °F 75% 30.23 in 10.0 mi East 17.3 mph - N/A   Clear